Tracking 30058 objects as of 9-Dec-2024
HD Live streaming from Space Station
objects crossing your sky now

SL-8 R/B

Track SL-8 R/B now!
10-day predictions


NORAD ID: 8295
Int'l Code: 1975-086J
Perigee: 1,489.3 km
Apogee: 1,692.1 km
Inclination: 74.0 °
Period: 117.8 minutes
Semi major axis: 7961 km
RCS: 6.5123 m2 (large)
Launch date: September 17, 1975
Source: Commonwealth of Independent States (former USSR) (CIS)
Launch site: PLESETSK MISSILE AND SPACE COMPLEX (PKMTR)

Note: This is a ROCKET BODY
Your satellite tracking list
Your tracking list is empty




NASA's NSSDC Master Catalog

Two Line Element Set (TLE):
1 08295U 75086J   24343.75298170 -.00000004  00000-0  97617-4 0  9994
2 08295  74.0125  87.2173 0127322 219.3807 255.3245 12.22063232196476
Source of the keplerian elements: AFSPC